This demonstration page uses our WeatherBlox Daily Observations layout. Learn more.

Left ArrowRight Arrow

39.95238, -75.16362

Hourly Observations for May 30, 2015

Temp ( °F °C ) Dew Point ( °F °C ) Humidity (%) Winds ( mph kmh ) Pressure ( in mb ) Visibility ( mi km ) Precip ( " mm )
12:54 am 00:54 Mostly Cloudy 71 21.7 63 17.2 76 76 SSW 6 9 30.21 1023 10 16 0.00 0.00
1:54 am 01:54 Mostly Cloudy 71 21.7 64 17.8 79 79 SW 3 6 30.20 1023 10 16 0.00 0.00
2:54 am 02:54 Mostly Cloudy 70 21.1 65 18.3 84 84 S 6 9 30.20 1023 10 16 0.00 0.00
3:54 am 03:54 Partly Cloudy 70 21.1 65 18.3 84 84 S 6 9 30.19 1022 10 16 0.00 0.00
4:54 am 04:54 Partly Cloudy 69 20.6 65 18.3 87 87 S 5 7 30.20 1023 10 16 0.00 0.00
5:54 am 05:54 Mostly Cloudy 68 20 65 18.3 90 90 SSE 3 6 30.21 1023 10 16 0.00 0.00
6:10 am 06:10 Mostly Cloudy 68 20 65 18.3 90 90 SE 3 6 30.21 1023 10 16 0.00 0.00
6:20 am 06:20 Mostly Cloudy 69 20.6 65 18.3 87 87 S 3 6 30.21 1023 8 13 0.00 0.00
6:54 am 06:54 Mostly Cloudy 69 20.6 65 18.3 87 87 S 6 9 30.21 1023 9 14 0.00 0.00
7:27 am 07:27 Cloudy 70 21.1 66 18.9 87 87 S 9 15 30.21 1023 10 16 0.00 0.00
7:54 am 07:54 Cloudy 71 21.7 66 18.9 84 84 S 9 15 30.21 1023 10 16 0.00 0.00
8:54 am 08:54 Cloudy 75 23.9 67 19.4 76 76 SSW 9 15 30.21 1023 10 16 0.00 0.00
9:37 am 09:37 Cloudy 76 24.4 67 19.4 74 74 SW 12 19 30.21 1023 10 16 0.00 0.00
9:54 am 09:54 Mostly Cloudy 77 25 67 19.4 71 71 SW 12 19 30.20 1023 10 16 0.00 0.00
10:54 am 10:54 Mostly Cloudy 79 26.1 67 19.4 67 67 SW 12 19 30.19 1023 10 16 0.00 0.00
11:10 am 11:10 Mostly Cloudy 80 26.7 67 19.4 64 64 SW 10 17 30.18 1022 10 16 0.00 0.00
11:26 am 11:26 Partly Cloudy 81 27 66 19 62 62 SW 10 17 30.18 1022 10 16 0.00 0.00
11:54 am 11:54 Partly Cloudy 82 27.8 67 19.4 60 60 SW 13 20 30.18 1022 10 16 0.00 0.00
12:54 pm 12:54 Partly Cloudy 84 28.9 66 18.9 55 55 SSW 9 15 30.16 1021 10 16 0.00 0.00
1:54 pm 13:54 Partly Cloudy 85 29.4 66 18.9 53 53 S 12 19 30.14 1021 10 16 0.00 0.00
2:54 pm 14:54 Partly Cloudy 86 30 66 18.9 51 51 S 13 20 30.11 1020 10 16 0.00 0.00
3:54 pm 15:54 Mostly Cloudy 86 30 64 17.8 48 48 SSW 16 26 30.09 1019 10 16 0.00 0.00
4:54 pm 16:54 Partly Cloudy 86 30 64 17.8 48 48 S 16 26 30.08 1019 10 16 0.00 0.00
5:54 pm 17:54 Partly Cloudy 84 28.9 64 17.8 51 51 S 14 22 30.07 1018 10 16 0.00 0.00
6:54 pm 18:54 Partly Cloudy 82 27.8 65 18.3 56 56 SSE 13 20 30.07 1018 10 16 0.00 0.00
7:54 pm 19:54 Mostly Sunny 80 26.7 65 18.3 60 60 S 10 17 30.07 1018 10 16 0.00 0.00
8:54 pm 20:54 Partly Cloudy 76 24.4 65 18.3 69 69 S 13 20 30.07 1018 10 16 0.00 0.00
9:54 pm 21:54 Mostly Clear 75 23.9 64 17.8 69 69 S 15 24 30.08 1019 10 16 0.00 0.00
10:54 pm 22:54 Mostly Clear 74 23.3 64 17.8 71 71 SSW 10 17 30.09 1019 10 16 0.00 0.00
11:54 pm 23:54 Partly Cloudy 74 23.3 64 17.8 71 71 SSW 7 11 30.09 1019 10 16 0.00 0.00

Powered by AerisWeather